Regional Weather Roundup
Issued by NWS

Home | Current Version | Previous Version | Graphics & Text | Print | Product List | Glossary Off
Versions: 1 2 3 4 5 6 7 8 9 10 11 12 13 14 15 16 17 18 19 20 21 22 23 24 25 26 27 28 29 30 31 32 33 34 35 36 37 38 39 40 41 42 43 44 45 46 47 48 49 50

000
ASUS45 KBOU 300507
RWRCO

WEATHER ROUNDUP FOR COLORADO
NATIONAL WEATHER SERVICE DENVER/BOULDER CO
1100 PM MDT FRI MAY 29 2015

NOTE: "FAIR" INDICATES FEW OR NO CLOUDS BELOW 12000 FEET WITH NO
SIGNIFICANT WEATHER AND/OR OBSTRUCTIONS TO VISIBILITY.

COZ001>005-013-030-031-300600-
...NORTHWEST COLORADO...

CITY           SKY/WX    TMP DP  RH WIND       PRES   REMARKS
CRAIG          CLEAR     43  39  86 SE3       30.30S
HAYDEN         CLEAR     46  37  71 E8        30.31F
MEEKER         CLEAR     48  41  76 CALM      30.30R
MOUNT WERNER   NOT AVBL
STEAMBOAT SPGS CLEAR     44  38  78 CALM      30.34S
WALDEN         CLEAR     37  34  87 CALM      30.39S
$$

COZ006>008-011-300600-
...WEST CENTRAL VALLEYS...

CITY           SKY/WX    TMP DP  RH WIND       PRES   REMARKS
GRAND JUNCTION CLEAR     63  38  39 E7        30.17R
MONTROSE       CLEAR     55  39  54 SE8       30.25R
EAGLE          CLEAR     55  50  82 E5        30.36R
RIFLE          CLEAR     55  41  59 E6        30.25R
DELTA          CLEAR     62  38  41 E8        30.20S
NUCLA          CLEAR     59  32  36 SE3       30.27S
$$

COZ017>023-064>068-300600-
...SOUTHWEST COLORADO...

CITY           SKY/WX    TMP DP  RH WIND       PRES   REMARKS
DURANGO        CLEAR     55  28  35 N5        30.24R
CORTEZ         CLEAR     53  28  38 NE7       30.22R
PAGOSA SPRINGS CLEAR     48  33  57 CALM      30.30R
TELLURIDE      CLEAR     46  33  61 SE5       30.41S
WOLF CREEK PAS NOT AVBL
$$

COZ009-010-012-014-032>034-037-058>063-300600-
...CENTRAL COLORADO...

CITY           SKY/WX    TMP DP  RH WIND       PRES   REMARKS
ASPEN          PTCLDY    45  37  73 SW7       30.35R
BUENA VISTA    PTCLDY    47  37  68 CALM      30.38S
COPPER MTN     PTCLDY    34  27  75 W9        30.53S WCI  26
BERTHOUD PASS  MOCLDY    27  19  74 NW14G23   30.55S HAZE    WCI  15
COTTONWOOD PAS PTCLDY    43  32  65 CALM      30.45S
GUNNISON       CLEAR     48  30  49 CALM      30.36R
KREMMLING      CLEAR     41  36  81 SE6       30.39R
LEADVILLE      PTCLDY    33  29  85 NW3       30.44S
MONARCH PASS   FOG       32  32 100 E13       30.63R VSB<1/4 WCI  22
SALIDA         CLOUDY    53  42  65 E8        30.43R
SUNLIGHT       CLEAR     39  32  75 E3        30.51F
WILKERSON PASS FOG       32  32 100 CALM      30.52S VSB 1/4
$$

COZ069>075-300600-
...SAN LUIS VALLEY/SANGRE DE CRISTO MOUNTAINS...

CITY           SKY/WX    TMP DP  RH WIND       PRES   REMARKS
ALAMOSA        MOCLDY    51  38  60 SE8       30.30R
LA VETA PASS   LGT RAIN N/A N/A N/A MISG      30.47S VSB 1/2
SAGUACHE       CLEAR     50  32  50 N10       30.33R
$$

COZ035-036-038>040-300600-
...NORTHERN COLORADO FRONT RANGE...

CITY           SKY/WX    TMP DP  RH WIND       PRES   REMARKS
DENVER INTL AP MOCLDY    49  44  83 E8        30.33F
DMNS CITY PARK   N/A     51  46  85 E6G14     30.33S
AURORA         CLOUDY    47  46  94 E8        30.34F
FRONT RANGE AP NOT AVBL
ERIE MUNI ARPT CLOUDY    50  48  90 CALM      30.33F
BOULDER MUN AP CLOUDY    50  48  93 CALM      30.34F
CENTENNIAL     CLOUDY    50  44  80 NE7       30.34S
BROOMFIELD     NOT AVBL
FORT COLLINS   MOCLDY    52  45  76 E5        30.35S
LONGMONT       CLOUDY    53  48  82 NE3       30.36S
$$

COZ041-046-047-076>085-087-088-300600-
...PIKES PEAK/PALMER DIVIDE AND SOUTHERN FOOTHILLS...

CITY           SKY/WX    TMP DP  RH WIND       PRES   REMARKS
COLO. SPRINGS  MOCLDY    50  45  83 N12       30.33F
A. F. ACADEMY  CLOUDY    48  47  97 NW7       30.34F
ELLICOTT       MOCLDY   N/A N/A N/A NE14      30.33R
FALCON         MOCLDY    46  43  89 N6        30.36F
FORT CARSON    PTCLDY    50  48  91 NW7       30.32R
LIMON          CLOUDY    47  42  83 N14       30.34R
MONUMENT HILL  CLOUDY    43  43 100 W7        30.37R
TRINIDAD       LGT RAIN  51  48  89 NE14      30.35R
$$

COZ042>045-048>051-090-091-300600-
...NORTHEAST COLORADO...

CITY           SKY/WX    TMP DP  RH WIND       PRES   REMARKS
GREELEY ARPT   CLOUDY    52  46  82 CALM      30.33F
AKRON          CLOUDY    48  45  89 N10       30.31S
BURLINGTON     CLOUDY    51  47  86 N10       30.28R
WRAY           CLOUDY    51  47  85 N12G20    30.29R
STERLING       CLOUDY    50  45  81 NE6       30.30S
HOLYOKE        CLOUDY    52  45  76 N9G18     30.29F
FORT MORGAN    CLOUDY    49  44  81 NE5       30.33S
$$

COZ086-089-092>099-300600-
...SOUTHEAST COLORADO...

CITY           SKY/WX    TMP DP  RH WIND       PRES   REMARKS
PUEBLO         LGT RAIN  56  51  84 E12       30.31R
LA JUNTA       CLOUDY    58  50  75 NE10      30.29R
LAMAR          CLOUDY    56  49  77 N15       30.24R
SPRINGFIELD      N/A     55  51  86 NE8       30.27R
$$


USA.gov is the U.S. government's official web portal to all federal, state and local government web resources and services.